This demonstration page uses our WeatherBlox Daily Observations layout. Learn more.

Left ArrowRight Arrow

Hourly Observations for January 26, 2020

Temp ( °F °C ) Dew Point ( °F °C ) Humidity (%) Winds ( mph kmh ) Pressure ( in mb ) Visibility ( mi km ) Precip ( " mm )
12:53 am 00:53 Clear 28 -2.2 24 -4.4 85 85 SW 12 19 30.04 1017 10 16 0.00 0.00
1:53 am 01:53 Clear 28 -2.2 24 -4.4 85 85 SW 14 22 30.03 1017 10 16 0.00 0.00
2:53 am 02:53 Clear 28 -2.2 23 -5 81 81 WSW 8 13 30.06 1018 10 16 0.00 0.00
3:53 am 03:53 Clear 25 -3.9 21 -6.1 85 85 SW 12 19 30.07 1018 10 16 0.00 0.00
4:53 am 04:53 Clear 24 -4.4 20 -6.7 84 84 WSW 9 15 30.09 1019 10 16 0.00 0.00
5:53 am 05:53 Clear 23 -5 20 -6.7 88 88 WNW 5 7 30.09 1019 10 16 0.00 0.00
6:53 am 06:53 Clear 22 -5.6 19 -7.2 89 89 WSW 6 9 30.11 1020 10 16 0.00 0.00
7:53 am 07:53 Clear 21 -6.1 19 -7.2 92 92 WNW 5 7 30.11 1020 10 16 0.00 0.00
8:53 am 08:53 Sunny 24 -4.4 20 -6.7 84 84 Calm 30.11 1020 10 16 0.00 0.00
9:53 am 09:53 Sunny 28 -2.2 23 -5 81 81 ESE 3 6 30.11 1020 10 16 0.00 0.00
10:53 am 10:53 Sunny 31 -0.6 24 -4.4 76 76 E 3 6 30.10 1019 10 16 0.00 0.00
11:53 am 11:53 Sunny 32 0 25 -3.9 75 75 E 7 11 30.07 1018 10 16 0.00 0.00
12:53 pm 12:53 Sunny 32 0 26 -3.3 79 79 ENE 9 15 30.06 1018 10 16 0.00 0.00
1:53 pm 13:53 Sunny 32 0 27 -2.8 82 82 ENE 13 20 30.05 1018 10 16 0.00 0.00
2:42 pm 14:42 Partly Cloudy 30 -1 27 -3 86 86 ENE 13 20 30.06 1018 10 16 0.00 0.00
2:51 pm 14:51 Mostly Cloudy 28 -2 27 -3 93 93 ENE 14 22 30.07 1018 10 16 0.00 0.00
2:53 pm 14:53 Mostly Cloudy 29 -1.7 27 -2.8 92 92 ENE 15 24 30.03 1017 10 16 0.00 0.00
3:53 pm 15:53 Cloudy with Mist and Fog 29 -1.7 27 -2.8 92 92 ENE 14 22 30.04 1017 3 5 0.00 0.00
3:57 pm 15:57 Cloudy with Mist and Fog 29 -1.7 27 -2.8 92 92 ENE 14 22 30.06 1018 2 3 0.00 0.00
4:05 pm 16:05 Cloudy with Mist and Fog 29 -1.7 28 -2.2 96 96 ENE 13 20 30.06 1018 1 2 0.00 0.00
4:10 pm 16:10 Cloudy with Mist and Fog 29 -1.7 27 -2.8 92 92 ENE 13 20 30.06 1018 2 3 0.00 0.00
4:26 pm 16:26 Cloudy with Mist and Fog 29 -1.7 27 -2.8 92 92 ENE 14 22 30.06 1018 1 2 0.00 0.00
4:33 pm 16:33 Cloudy with Freezing Fog 29 -1.7 27 -2.8 92 92 ENE 12 19 30.06 1018 1 1 0.00 0.00
4:53 pm 16:53 Mostly Cloudy with Freezing Fog 29 -1.7 27 -2.8 92 92 ENE 14 22 30.03 1017 0 0 0.00 0.00
5:09 pm 17:09 Mostly Cloudy with Mist and Fog 29 -1.7 28 -2.2 96 96 ENE 15 24 30.05 1018 1 1 0.00 0.00
5:20 pm 17:20 Cloudy with Mist and Fog 29 -1.7 28 -2.2 96 96 ENE 16 26 30.05 1018 1 2 0.00 0.00
5:38 pm 17:38 Mostly Cloudy with Mist and Fog 29 -1.7 28 -2.2 96 96 E 16 26 30.05 1018 1 1 0.00 0.00
5:46 pm 17:46 Cloudy with Mist and Fog 29 -1.7 28 -2.2 96 96 E 16 26 30.05 1018 1 2 0.00 0.00
5:53 pm 17:53 Cloudy with Mist and Fog 29 -1.7 28 -2.2 96 96 E 15 24 30.02 1017 2 2 0.00 0.00
6:12 pm 18:12 Cloudy with Mist and Fog 29 -1.7 28 -2.2 96 96 E 17 28 30.05 1018 1 2 0.00 0.00
6:42 pm 18:42 Cloudy with Mist and Fog 29 -1.7 28 -2.2 96 96 E 17 28 30.04 1017 2 3 0.00 0.00
6:53 pm 18:53 Cloudy with Mist and Fog 29 -1.7 28 -2.2 96 96 E 17 28 30.02 1017 3 4 0.00 0.00
7:03 pm 19:03 Cloudy with Mist and Fog 29 -1.7 28 -2.2 96 96 E 18 30 30.04 1017 2 3 0.00 0.00
7:10 pm 19:10 Cloudy with Mist and Fog 29 -1.7 28 -2.2 96 96 E 15 24 30.04 1017 3 5 0.00 0.00
7:53 pm 19:53 Cloudy with Mist and Fog 29 -1.7 28 -2.2 96 96 E 14 22 30.01 1016 2 3 0.00 0.00
8:02 pm 20:02 Cloudy with Mist and Fog 29 -1.7 28 -2.2 96 96 E 14 22 30.03 1017 4 6 0.00 0.00
8:24 pm 20:24 Cloudy with Mist and Fog 29 -1.7 28 -2.2 96 96 E 12 19 30.03 1017 2 3 0.00 0.00
8:53 pm 20:53 Cloudy with Mist and Fog 29 -1.7 28 -2.2 96 96 ENE 12 19 30.00 1016 3 5 0.00 0.00
9:53 pm 21:53 Cloudy 29 -1.7 28 -2.2 96 96 E 9 15 29.99 1016 10 16 0.00 0.00
10:53 pm 22:53 Cloudy 29 -1.7 28 -2.2 96 96 E 3 6 29.99 1016 10 16 0.00 0.00
11:16 pm 23:16 Mostly Cloudy 29 -1.7 27 -2.8 92 92 SSE 5 7 30.02 1017 10 16 0.00 0.00
11:53 pm 23:53 Mostly Cloudy 28 -2.2 26 -3.3 92 92 SSW 5 7 29.99 1016 8 13 0.00 0.00

Powered by AerisWeather